Theta_e
304 302 302 303 304 303 302 304 305 305 305 305 305 307 308 309 310 309 311 313 315 317 319 320 321 322 321 322 325 327 328 331
304 304 304 304 305 305 304 303 303 304 304 304 305 305 306 306 307 307 308 310 312 314 317 319 321 322 323 323 323 323 327 329
303 304 304 304 305 304 304 303 303 304 304 303 303 303 304 304 305 305 306 307 308 309 310 312 317 320 320 320 321 321 322 323
300 303 301 299 300 303 303 303 304 305 304 304 305 305 304 304 304 304 304 304 305 305 306 307 307 309 306 309 314 318 320 321
297 297 298 298 299 300 300 301 303 303 303 304 305 305 305 305 305 304 303 302 303 304 305 308 310 312 306 305 308 316 317 317
297 297 298 299 299 299 300 300 302 303 303 305 305 305 305 304 304 303 302 302 302 303 305 307 308 313 307 304 305 312 314 318
299 300 300 300 299 300 299 299 300 300 301 304 304 305 304 304 304 303 302 301 301 302 305 306 307 309 304 302 304 315 318 320
300 300 300 299 299 300 298 298 299 298 299 301 304 305 305 304 304 303 303 301 303 305 305 306 307 310 306 300 303 316 316 319
299 297 297 298 299 299 297 298 297 299 300 301 302 304 305 305 304 303 302 301 303 303 303 305 307 310 313 301 298 313 316 317
297 296 296 298 299 298 297 296 299 301 301 301 301 303 304 305 302 302 301 301 301 301 301 303 306 310 303 305 299 299 306 315
296 294 294 295 297 298 296 296 300 300 300 300 300 302 303 304 303 301 301 301 302 302 302 303 305 310 312 301 299 304 300 308
293 293 292 292 294 295 296 296 299 300 299 300 301 302 303 303 303 303 303 302 302 303 303 303 305 307 310 312 314 314 302 305
291 291 291 290 291 292 294 296 298 298 299 301 301 303 303 303 304 304 304 305 304 305 306 308 308 308 311 309 309 315 316 311
291 292 294 295 297 292 293 296 297 298 298 299 300 301 302 304 304 304 296 299 298 297 298 304 311 304 300 297 297 297 300 299
291 293 297 297 295 292 293 294 296 298 298 300 301 302 303 303 304 303 302 300 297 298 295 295 294 301 295 295 295 295 296 299
294 295 300 296 293 292 293 295 297 298 299 298 302 302 303 303 305 305 305 303 304 304 298 297 295 293 293 294 294 297 304 305
295 297 297 299 296 294 296 297 298 298 300 301 301 302 305 304 306 304 305 305 305 304 306 298 297 293 293 294 295 316 317 318
292 294 294 297 299 298 297 297 297 299 300 298 299 302 304 307 307 307 306 306 306 308 308 308 301 300 302 304 312 319 318 317
292 294 293 292 296 299 301 299 299 300 302 303 299 306 305 307 310 309 308 308 310 310 309 305 295 310 311 316 318 319 318 318
291 292 292 291 295 297 305 304 303 304 304 305 304 304 310 309 311 314 314 314 313 310 309 305 292 319 319 319 317 318 319 318
Wind_Speed
7 3 0 1 4 4 3 6 7 5 3 6 7 7 7 8 7 6 5 4 4 4 5 6 6 6 6 6 6 7 7 9
9 5 6 5 5 6 4 4 6 7 6 5 6 7 8 7 6 5 4 4 3 2 3 4 6 6 6 7 6 7 7 9
10 7 5 6 6 6 4 6 4 4 6 7 7 5 5 6 6 6 5 3 3 3 5 4 6 6 6 7 7 7 7 8
13 9 7 6 6 5 5 5 6 5 6 7 8 9 8 8 7 7 7 5 5 4 5 5 7 8 12 14 11 6 6 7
8 8 8 7 7 7 8 7 6 6 7 8 9 9 11 11 9 7 6 6 6 6 6 6 8 10 14 15 15 5 6 7
12 12 15 14 9 9 9 8 8 11 12 12 14 12 13 8 7 7 7 6 7 7 7 7 8 9 14 15 15 6 6 7
17 16 18 19 16 14 14 16 15 15 17 15 11 10 11 9 10 9 8 6 6 7 7 8 7 8 13 15 11 5 5 8
19 18 16 19 21 20 21 22 19 19 17 17 16 14 15 14 13 11 8 6 9 8 10 7 10 10 13 14 9 3 4 4
18 26 29 25 24 24 24 22 25 22 18 18 20 18 18 17 14 11 9 8 8 9 8 8 8 9 11 12 10 3 4 4
27 25 25 24 23 21 24 25 23 21 18 18 15 14 13 12 10 9 7 7 7 9 8 8 6 8 12 13 12 11 5 4
24 23 25 23 22 23 25 21 22 21 19 18 18 18 13 13 11 8 5 6 9 9 7 8 7 5 6 13 10 13 9 4
22 23 24 25 21 22 21 21 20 19 18 17 14 14 12 10 7 7 8 8 9 8 8 8 8 8 8 6 5 6 6 6
21 22 22 25 24 22 20 19 19 15 15 14 15 11 12 11 10 10 10 11 10 9 9 8 8 9 9 9 8 6 5 7
21 23 24 26 23 20 16 16 13 16 14 12 9 9 8 8 8 8 7 10 13 15 13 11 8 12 10 10 12 11 12 15
21 23 20 17 10 10 12 13 13 13 12 11 9 9 9 9 8 8 8 6 10 14 12 13 10 10 10 10 11 13 15 15
20 19 13 11 8 7 9 11 11 11 12 11 7 7 7 8 8 8 8 7 8 8 13 14 17 16 12 12 9 11 8 6
16 13 15 9 7 6 7 9 8 8 7 7 8 8 8 8 8 8 8 8 7 6 4 5 9 10 12 15 20 9 11 9
16 12 14 13 9 5 6 8 9 6 9 10 8 5 4 7 7 7 8 8 7 7 7 7 6 7 6 6 9 8 7 8
15 10 10 12 11 10 7 8 7 6 4 4 7 7 7 7 7 7 7 7 7 6 3 5 8 8 10 11 8 7 7 7
17 17 19 17 15 11 7 9 9 7 7 7 7 8 5 7 7 6 7 7 6 6 5 5 8 8 8 9 8 8 6 6
Wind_Direction
268 198 337 272 322 326 263 201 213 228 275 237 206 209 196 212 210 196 185 187 213 212 204 219 229 238 250 244 237 260 271 274
303 301 261 242 207 250 279 292 225 195 173 211 244 209 196 192 189 195 189 190 225 267 246 244 247 243 236 245 239 252 263 271
310 292 269 264 277 254 260 272 252 215 195 169 200 218 227 192 199 204 217 234 255 249 265 266 258 253 256 239 236 235 243 263
297 297 309 321 322 305 296 286 262 264 218 213 197 193 198 207 210 214 206 207 226 246 267 269 278 277 267 242 234 233 244 257
288 293 294 287 282 286 286 280 278 251 232 247 236 214 214 212 206 203 212 227 242 253 250 250 263 270 265 247 242 230 236 251
286 290 291 276 256 256 264 263 267 278 275 258 244 228 224 208 202 206 211 206 215 221 230 235 254 266 255 245 245 242 250 249
270 272 273 280 281 278 270 266 261 259 257 255 242 223 222 208 217 213 206 204 215 218 229 238 237 250 248 246 248 241 243 254
267 264 271 266 258 261 265 264 258 252 252 253 251 230 226 221 219 217 207 197 219 226 235 219 229 249 260 243 225 201 243 257
285 283 276 264 256 252 247 253 250 249 247 251 241 235 226 221 213 204 202 210 221 222 232 236 231 225 251 245 230 209 220 246
280 275 269 262 260 255 247 244 249 241 235 239 251 233 217 214 206 210 193 200 222 232 231 238 237 234 227 248 239 212 232 230
286 280 277 269 261 247 245 248 243 231 229 229 229 233 228 213 211 199 197 194 219 219 221 235 239 231 235 228 240 252 235 219
290 281 272 267 257 247 240 240 241 222 221 218 222 219 207 203 205 207 207 206 213 215 221 228 231 231 229 217 209 243 227 224
296 286 277 267 257 242 234 231 224 226 218 210 210 207 206 215 216 211 207 217 208 213 214 214 217 226 219 197 191 207 203 197
300 296 294 287 259 220 215 210 216 212 205 204 209 212 198 203 207 208 222 210 208 222 216 205 223 224 204 205 212 210 184 165
310 312 315 343 30 145 176 192 201 208 197 193 195 191 190 190 194 198 208 224 221 239 228 223 227 234 210 224 220 208 177 166
317 321 342 17 50 109 162 182 189 193 192 178 179 171 187 195 197 195 197 198 213 238 230 222 229 231 236 241 196 152 166 216
327 337 352 24 59 97 145 173 175 166 162 174 186 195 192 188 192 196 205 208 211 216 197 194 226 225 202 193 166 184 178 169
345 349 349 354 22 100 142 161 173 186 190 185 179 192 190 191 193 193 199 204 206 217 222 221 150 137 161 161 187 164 152 151
340 341 3 355 357 344 161 175 175 189 201 191 189 191 197 210 196 191 200 203 204 210 173 154 172 164 147 169 142 140 137 140
351 10 6 353 341 325 212 183 184 192 198 197 194 208 200 193 204 194 183 175 152 140 141 147 166 132 132 134 129 137 145 136